QPF
0.00 0.00 0.00 0.00 0.00 0.00 0.00 0.00 0.00 0.00 0.00 0.00 0.00 0.00 0.00 0.00 0.00 0.00 0.00 0.00 0.00 0.00 0.00 0.00 0.00 0.00 0.00 0.00 0.00 0.00 0.00 0.00 0.00 0.00 0.00 0.00 0.00 0.00 0.00 0.00 0.00 0.00 0.00 0.00
0.00 0.00 0.00 0.00 0.00 0.00 0.00 0.00 0.00 0.00 0.00 0.00 0.00 0.00 0.00 0.00 0.00 0.00 0.00 0.00 0.00 0.00 0.00 0.00 0.00 0.00 0.00 0.00 0.00 0.00 0.00 0.00 0.00 0.00 0.00 0.00 0.00 0.00 0.00 0.00 0.00 0.00 0.00 0.00
0.00 0.00 0.00 0.00 0.00 0.00 0.00 0.00 0.00 0.00 0.00 0.00 0.00 0.00 0.00 0.00 0.00 0.00 0.00 0.00 0.00 0.00 0.00 0.00 0.00 0.00 0.00 0.00 0.00 0.00 0.00 0.00 0.00 0.00 0.00 0.00 0.00 0.00 0.00 0.00 0.00 0.00 0.00 0.00
0.00 0.00 0.00 0.00 0.00 0.00 0.00 0.00 0.00 0.00 0.00 0.00 0.00 0.00 0.00 0.00 0.00 0.00 0.00 0.00 0.00 0.00 0.00 0.00 0.00 0.00 0.00 0.00 0.00 0.00 0.00 0.00 0.00 0.00 0.00 0.00 0.00 0.00 0.00 0.00 0.00 0.00 0.00 0.00
0.00 0.00 0.00 0.00 0.00 0.00 0.00 0.00 0.00 0.00 0.00 0.00 0.00 0.00 0.00 0.00 0.00 0.00 0.00 0.00 0.00 0.00 0.00 0.00 0.00 0.00 0.00 0.00 0.00 0.00 0.00 0.00 0.00 0.00 0.00 0.00 0.00 0.00 0.00 0.00 0.00 0.00 0.00 0.00
0.00 0.00 0.00 0.00 0.00 0.00 0.00 0.00 0.00 0.00 0.00 0.00 0.00 0.00 0.00 0.00 0.00 0.00 0.00 0.00 0.00 0.00 0.00 0.00 0.00 0.00 0.00 0.00 0.00 0.00 0.00 0.00 0.00 0.00 0.00 0.00 0.00 0.00 0.00 0.00 0.00 0.00 0.00 0.00
0.00 0.00 0.00 0.00 0.00 0.00 0.00 0.00 0.00 0.00 0.00 0.00 0.00 0.00 0.00 0.00 0.00 0.00 0.00 0.00 0.00 0.00 0.00 0.00 0.00 0.00 0.00 0.00 0.00 0.00 0.00 0.00 0.00 0.00 0.00 0.00 0.00 0.00 0.00 0.00 0.00 0.00 0.00 0.00
0.00 0.00 0.00 0.00 0.00 0.00 0.00 0.00 0.00 0.00 0.00 0.00 0.00 0.00 0.00 0.00 0.00 0.00 0.00 0.00 0.00 0.00 0.00 0.00 0.00 0.00 0.00 0.00 0.00 0.00 0.00 0.00 0.00 0.00 0.00 0.00 0.00 0.00 0.00 0.00 0.00 0.00 0.00 0.00
0.00 0.00 0.00 0.00 0.00 0.00 0.00 0.00 0.00 0.00 0.00 0.00 0.00 0.00 0.00 0.00 0.00 0.00 0.00 0.00 0.00 0.00 0.00 0.00 0.00 0.00 0.00 0.00 0.00 0.00 0.00 0.00 0.00 0.00 0.00 0.00 0.00 0.00 0.00 0.00 0.00 0.00 0.00 0.00
0.00 0.00 0.00 0.00 0.00 0.00 0.00 0.00 0.01 0.06 0.09 0.02 0.00 0.00 0.00 0.00 0.00 0.00 0.00 0.00 0.00 0.00 0.00 0.00 0.00 0.00 0.00 0.00 0.00 0.00 0.00 0.00 0.00 0.00 0.00 0.00 0.00 0.00 0.00 0.00 0.00 0.00 0.00 0.00
0.00 0.00 0.00 0.00 0.00 0.00 0.00 0.00 0.00 0.01 0.02 0.03 0.01 0.00 0.00 0.00 0.00 0.00 0.00 0.00 0.00 0.00 0.00 0.00 0.00 0.00 0.00 0.00 0.00 0.00 0.00 0.00 0.00 0.00 0.00 0.00 0.00 0.00 0.00 0.00 0.00 0.00 0.00 0.00
0.00 0.00 0.00 0.00 0.00 0.00 0.00 0.00 0.00 0.03 0.03 0.02 0.03 0.02 0.00 0.00 0.00 0.00 0.00 0.00 0.00 0.00 0.00 0.00 0.00 0.00 0.00 0.00 0.00 0.00 0.00 0.00 0.00 0.00 0.00 0.00 0.00 0.00 0.00 0.00 0.00 0.00 0.00 0.00
0.02 0.02 0.01 0.00 0.00 0.01 0.00 0.00 0.00 0.00 0.01 0.03 0.05 0.03 0.00 0.00 0.00 0.00 0.00 0.00 0.00 0.00 0.00 0.00 0.00 0.00 0.00 0.00 0.00 0.00 0.00 0.00 0.00 0.00 0.00 0.00 0.00 0.00 0.00 0.00 0.00 0.00 0.00 0.00
0.02 0.04 0.01 0.01 0.01 0.05 0.04 0.01 0.00 0.04 0.08 0.03 0.01 0.01 0.00 0.00 0.00 0.00 0.00 0.00 0.00 0.00 0.00 0.00 0.00 0.00 0.00 0.00 0.00 0.00 0.00 0.00 0.00 0.00 0.00 0.00 0.00 0.00 0.00 0.00 0.00 0.00 0.00 0.00
0.04 0.07 0.01 0.00 0.00 0.00 0.00 0.00 0.00 0.01 0.02 0.05 0.02 0.01 0.00 0.00 0.00 0.00 0.00 0.00 0.00 0.00 0.00 0.00 0.00 0.00 0.00 0.00 0.00 0.00 0.00 0.00 0.00 0.00 0.00 0.00 0.00 0.00 0.00 0.00 0.00 0.00 0.00 0.00
0.00 0.01 0.00 0.00 0.00 0.00 0.00 0.00 0.00 0.00 0.00 0.00 0.00 0.01 0.00 0.00 0.00 0.00 0.00 0.00 0.00 0.00 0.00 0.00 0.00 0.00 0.00 0.00 0.00 0.00 0.00 0.00 0.00 0.00 0.00 0.00 0.00 0.00 0.00 0.00 0.00 0.00 0.00 0.00
0.04 0.04 0.03 0.02 0.00 0.01 0.04 0.00 0.00 0.00 0.00 0.00 0.01 0.01 0.00 0.00 0.00 0.00 0.00 0.00 0.00 0.00 0.00 0.00 0.00 0.00 0.00 0.00 0.00 0.00 0.00 0.00 0.00 0.00 0.00 0.00 0.00 0.00 0.00 0.00 0.00 0.00 0.00 0.00
0.02 0.02 0.03 0.02 0.01 0.03 0.00 0.00 0.00 0.00 0.00 0.00 0.00 0.00 0.00 0.00 0.00 0.00 0.00 0.00 0.00 0.00 0.00 0.00 0.00 0.00 0.00 0.00 0.00 0.00 0.00 0.00 0.00 0.00 0.00 0.00 0.00 0.00 0.00 0.00 0.00 0.00 0.00 0.00
0.00 0.03 0.05 0.05 0.03 0.01 0.00 0.00 0.00 0.00 0.00 0.00 0.00 0.00 0.00 0.00 0.00 0.00 0.00 0.00 0.00 0.00 0.00 0.00 0.00 0.00 0.00 0.00 0.00 0.00 0.00 0.00 0.00 0.00 0.00 0.00 0.00 0.00 0.00 0.00 0.00 0.00 0.00 0.00
0.02 0.03 0.07 0.06 0.05 0.01 0.00 0.00 0.02 0.02 0.02 0.00 0.00 0.00 0.00 0.00 0.00 0.00 0.00 0.00 0.00 0.01 0.00 0.00 0.00 0.00 0.00 0.00 0.00 0.00 0.00 0.00 0.00 0.00 0.00 0.00 0.00 0.00 0.00 0.00 0.00 0.00 0.00 0.00
0.08 0.09 0.09 0.09 0.15 0.12 0.01 0.00 0.01 0.02 0.02 0.00 0.00 0.00 0.00 0.03 0.04 0.00 0.00 0.00 0.00 0.00 0.00 0.00 0.00 0.00 0.00 0.00 0.00 0.00 0.00 0.00 0.00 0.00 0.00 0.00 0.00 0.00 0.00 0.00 0.00 0.00 0.00 0.00
0.03 0.06 0.06 0.07 0.07 0.05 0.03 0.04 0.03 0.03 0.00 0.00 0.00 0.00 0.00 0.00 0.00 0.00 0.00 0.00 0.00 0.00 0.00 0.00 0.00 0.00 0.00 0.00 0.00 0.00 0.00 0.00 0.00 0.00 0.00 0.00 0.00 0.00 0.00 0.00 0.00 0.00 0.00 0.00
0.03 0.02 0.04 0.09 0.11 0.06 0.03 0.01 0.00 0.00 0.00 0.00 0.00 0.00 0.00 0.00 0.00 0.00 0.00 0.00 0.00 0.00 0.00 0.00 0.00 0.00 0.00 0.00 0.00 0.00 0.00 0.00 0.00 0.00 0.00 0.00 0.00 0.00 0.00 0.00 0.00 0.00 0.00 0.00
0.02 0.00 0.03 0.02 0.00 0.00 0.00 0.00 0.00 0.00 0.01 0.00 0.00 0.00 0.00 0.00 0.00 0.00 0.00 0.00 0.00 0.00 0.00 0.00 0.00 0.00 0.00 0.00 0.00 0.00 0.00 0.00 0.00 0.00 0.00 0.00 0.00 0.00 0.00 0.00 0.00 0.00 0.00 0.00
0.06 0.02 0.00 0.01 0.00 0.01 0.01 0.00 0.00 0.01 0.02 0.00 0.00 0.00 0.00 0.00 0.00 0.00 0.00 0.00 0.00 0.00 0.00 0.00 0.00 0.00 0.00 0.00 0.00 0.00 0.00 0.00 0.00 0.00 0.00 0.00 0.00 0.00 0.00 0.00 0.00 0.00 0.00 0.00
0.01 0.01 0.01 0.02 0.00 0.02 0.01 0.00 0.00 0.00 0.01 0.00 0.00 0.00 0.00 0.00 0.03 0.01 0.01 0.00 0.00 0.00 0.00 0.00 0.00 0.00 0.00 0.00 0.00 0.00 0.00 0.00 0.00 0.00 0.00 0.00 0.00 0.00 0.00 0.00 0.00 0.00 0.00 0.00
MSLP
1004.82 1004.47 1002.86 1001.89 1002.02 1001.81 1001.69 1000.98 1000.21 999.65 999.50 1000.47 1000.48 1000.17 999.90 1000.48 1001.36 1001.88 1002.57 1003.51 1004.89 1006.20 1007.79 1009.28 1010.68 1011.64 1012.66 1014.00 1014.81 1015.34 1016.03 1016.61 1016.78 1017.03 1017.16 1017.47 1017.89 1018.58 1019.07 1019.50 1020.34 1020.41 1020.55 1020.59
1004.45 1002.36 1002.44 1002.06 1001.59 1001.58 1001.70 1001.49 1000.92 1000.49 1000.10 1000.21 1000.49 999.87 999.60 999.42 999.59 1000.70 1001.57 1002.96 1004.50 1006.10 1007.68 1009.47 1010.68 1011.87 1012.76 1013.73 1014.33 1014.94 1015.60 1016.13 1016.43 1016.83 1017.35 1017.53 1017.97 1018.73 1019.23 1019.78 1020.48 1021.12 1021.11 1021.09
1002.96 1001.62 1001.53 1001.93 1001.81 1001.53 1001.48 1001.50 1001.17 1000.56 1000.40 1000.01 1000.60 999.08 998.92 998.81 998.64 998.95 1000.44 1001.81 1003.49 1005.14 1007.03 1009.03 1010.38 1011.53 1012.51 1013.33 1014.01 1014.64 1015.31 1015.98 1016.45 1017.07 1017.52 1017.92 1018.44 1018.81 1018.92 1019.41 1019.93 1021.16 1021.39 1021.54
1002.43 1002.11 1001.44 1001.47 1001.36 1001.71 1000.76 1001.35 1001.11 1001.17 1001.13 999.90 1000.07 996.79 997.14 996.97 996.31 997.37 999.37 1000.91 1002.61 1004.59 1006.51 1008.35 1009.88 1011.06 1012.02 1012.90 1013.79 1014.38 1015.22 1016.02 1016.79 1017.11 1017.13 1017.34 1017.43 1017.82 1019.17 1019.69 1020.41 1020.86 1021.69 1021.74
1001.27 1001.15 1001.25 1000.70 1000.15 1001.23 1000.53 1001.61 1001.86 1001.56 1001.77 1001.27 999.62 999.13 994.48 996.52 996.10 996.45 998.81 1000.26 1001.90 1003.51 1005.30 1007.41 1009.36 1010.84 1011.72 1012.75 1013.71 1014.45 1015.41 1016.10 1017.01 1017.48 1017.50 1017.67 1018.01 1018.76 1019.51 1019.94 1020.47 1021.06 1021.37 1021.74
1002.17 1001.60 1001.64 1001.22 1001.03 1000.96 1001.32 1001.85 1002.77 1002.73 1002.52 1001.11 999.67 999.12 993.37 995.92 995.65 996.20 998.34 1000.11 1001.54 1002.99 1004.83 1006.91 1009.05 1010.61 1011.59 1012.82 1013.76 1014.62 1015.37 1016.32 1017.27 1017.85 1018.18 1018.14 1018.69 1018.85 1019.24 1019.78 1020.15 1020.61 1021.14 1021.53
1001.65 1001.25 1001.29 1001.75 1001.39 1001.73 1002.01 1002.15 1003.04 1002.98 1001.94 999.87 999.55 997.88 995.81 996.18 996.62 997.23 998.31 999.60 1001.35 1003.05 1004.66 1006.47 1008.49 1010.08 1011.14 1012.59 1013.66 1014.43 1015.30 1016.51 1017.48 1018.01 1018.41 1018.80 1019.26 1019.51 1019.82 1019.97 1020.43 1020.54 1020.77 1021.34
1001.23 1000.22 1000.07 1000.64 1001.28 1000.78 1001.52 1001.72 1001.94 1001.11 1000.88 1000.09 999.22 997.14 995.85 996.96 997.68 998.39 999.21 999.67 1000.96 1002.99 1004.74 1006.16 1007.78 1009.21 1010.76 1012.50 1013.61 1014.23 1015.25 1016.55 1017.49 1017.99 1018.62 1019.31 1019.64 1019.84 1020.22 1020.66 1020.98 1020.96 1021.11 1021.96
1002.55 1000.87 1000.50 1001.33 1001.03 1001.50 1001.11 1001.03 1001.67 1002.17 1002.12 1001.97 1000.01 998.32 997.57 997.56 998.26 998.97 999.76 1000.50 1001.38 1002.80 1004.11 1005.55 1007.38 1008.80 1010.49 1012.62 1013.82 1014.60 1015.33 1016.28 1017.37 1018.16 1018.86 1019.43 1019.73 1020.15 1020.53 1021.00 1021.08 1021.36 1021.87 1022.26
1005.48 1004.01 1002.49 1002.12 1001.94 1001.58 1001.40 1001.69 1002.38 1003.92 1002.95 1001.42 999.57 998.66 997.30 997.63 997.90 999.24 1000.71 1000.82 1001.94 1002.78 1004.32 1005.97 1007.31 1008.49 1010.40 1012.78 1014.28 1015.21 1015.65 1016.38 1017.36 1018.25 1018.79 1019.49 1020.07 1020.55 1020.87 1021.16 1021.29 1021.84 1022.29 1022.40
1006.78 1006.18 1003.67 1003.39 1002.48 1002.22 1002.17 1002.45 1003.07 1003.59 1004.08 1002.97 1001.37 999.29 998.59 999.33 999.75 1000.00 1000.85 1001.77 1002.43 1003.33 1004.52 1006.20 1007.83 1008.98 1010.41 1013.13 1014.23 1015.11 1015.78 1016.58 1017.22 1018.24 1018.84 1019.65 1020.36 1020.75 1021.06 1021.40 1021.77 1022.21 1022.48 1022.67
1007.81 1007.50 1005.71 1004.17 1003.06 1003.01 1003.30 1003.27 1003.55 1003.71 1003.73 1003.51 1002.47 1000.48 1000.04 999.56 999.91 1000.70 1000.99 1002.69 1002.93 1004.02 1005.52 1006.67 1008.05 1009.33 1011.14 1013.21 1014.71 1015.53 1016.06 1017.01 1017.52 1018.30 1018.91 1019.76 1020.60 1021.19 1021.26 1021.86 1022.28 1022.42 1022.78 1023.07
1009.73 1008.90 1007.13 1004.83 1004.18 1003.49 1003.53 1003.89 1003.81 1003.61 1004.13 1003.78 1003.09 1001.30 1000.39 1000.19 1000.56 1001.15 1001.51 1002.39 1003.56 1004.29 1005.82 1007.02 1008.34 1009.33 1011.67 1013.00 1014.51 1015.84 1016.39 1017.44 1017.98 1019.01 1019.40 1020.05 1021.06 1021.47 1022.07 1022.35 1022.69 1023.02 1023.33 1023.62
1010.91 1010.06 1009.05 1007.23 1006.05 1006.59 1006.30 1005.95 1005.66 1005.81 1005.01 1003.72 1002.58 1001.79 1000.84 1000.29 1000.15 1000.41 1001.48 1001.89 1003.51 1004.66 1005.74 1007.26 1008.27 1009.71 1011.65 1013.03 1014.47 1015.58 1016.29 1017.21 1017.91 1019.14 1020.20 1020.60 1022.12 1022.62 1022.74 1023.10 1023.73 1024.04 1024.30 1024.63
1010.58 1010.14 1009.55 1008.62 1007.77 1007.46 1006.42 1005.73 1005.56 1005.18 1004.60 1004.25 1003.23 1002.68 1001.42 1000.76 1000.48 1001.05 1002.21 1002.12 1003.11 1004.35 1005.62 1006.90 1008.16 1009.16 1011.06 1012.15 1013.92 1014.60 1015.62 1016.48 1017.52 1018.72 1019.81 1021.43 1022.49 1022.88 1023.14 1023.65 1024.27 1024.61 1024.95 1025.23
1008.74 1008.95 1008.99 1008.36 1007.64 1006.81 1005.75 1005.47 1004.60 1003.95 1003.66 1003.03 1002.17 1001.38 1000.81 1000.05 1000.28 1000.11 1000.85 1001.27 1002.06 1003.12 1004.47 1006.09 1007.38 1008.68 1010.02 1010.88 1012.56 1013.51 1014.59 1015.76 1016.85 1017.88 1019.19 1020.83 1021.76 1022.35 1022.96 1023.56 1024.00 1024.48 1025.00 1025.30
1008.10 1008.25 1008.09 1007.33 1006.63 1005.68 1004.64 1003.89 1003.47 1002.89 1002.22 1001.48 1000.34 999.96 999.75 999.34 999.42 999.63 999.95 1000.10 1000.35 1001.16 1002.44 1004.55 1006.12 1007.26 1009.13 1010.11 1011.35 1012.36 1013.57 1015.13 1016.10 1017.02 1018.56 1019.84 1020.74 1021.35 1022.14 1022.75 1023.09 1023.70 1024.25 1024.45
1007.46 1007.80 1007.97 1007.41 1007.02 1005.29 1003.37 1002.90 1002.03 1000.96 1000.13 999.65 998.89 998.64 998.40 998.29 998.39 998.40 998.69 998.68 999.27 999.58 1000.53 1003.38 1005.47 1006.62 1007.78 1009.31 1010.65 1011.83 1013.27 1014.60 1015.65 1016.89 1017.93 1018.95 1019.76 1020.57 1021.35 1021.85 1022.42 1022.78 1023.35 1023.76
1006.38 1006.64 1007.01 1007.00 1006.00 1004.42 1002.79 1001.20 1000.63 999.96 999.40 998.84 998.24 998.28 997.55 997.31 997.48 997.85 998.98 999.55 999.64 999.71 1000.39 1002.87 1004.83 1005.92 1007.33 1008.59 1010.08 1011.40 1012.71 1014.01 1015.23 1016.37 1017.36 1018.16 1019.04 1019.88 1020.65 1021.25 1021.79 1022.34 1022.84 1023.29
1004.68 1005.17 1006.21 1006.30 1005.37 1003.62 1001.38 1000.69 1001.67 1001.13 999.74 999.33 999.05 998.78 997.93 997.79 998.11 997.99 998.96 999.44 1000.05 1000.76 1001.48 1002.97 1004.67 1006.01 1007.19 1008.43 1009.77 1010.90 1012.17 1013.42 1014.72 1015.82 1016.86 1017.72 1018.60 1019.42 1020.25 1020.90 1021.59 1022.19 1022.75 1023.59
1004.27 1004.72 1005.14 1005.20 1004.60 1003.41 1002.63 1001.43 1001.63 1001.81 1001.43 1000.96 1001.03 1000.18 999.90 999.79 1000.54 999.24 999.38 999.46 1000.10 1000.50 1001.84 1003.43 1004.73 1005.45 1006.60 1008.05 1009.28 1010.56 1011.91 1013.27 1014.44 1015.44 1016.51 1017.66 1018.48 1019.31 1020.28 1020.95 1021.67 1022.31 1023.04 1023.66
1003.10 1003.40 1003.78 1003.94 1003.73 1002.79 1002.44 1002.01 1002.34 1002.46 1002.13 1002.11 1002.06 1001.72 1001.24 1000.34 1000.09 999.60 999.72 1000.16 1000.38 1000.97 1002.27 1003.78 1004.56 1005.56 1006.73 1007.87 1009.17 1010.14 1011.56 1013.00 1013.92 1015.02 1016.19 1017.34 1018.24 1019.23 1020.20 1021.01 1021.79 1022.50 1023.20 1024.12
1003.23 1002.65 1002.75 1003.17 1002.66 1003.10 1003.57 1002.66 1002.77 1003.07 1003.07 1002.88 1003.13 1003.02 1002.65 1001.64 1000.57 1000.31 1000.50 1000.64 1001.03 1001.80 1002.87 1003.75 1004.55 1005.63 1006.84 1008.00 1009.04 1009.73 1011.12 1012.58 1013.57 1014.74 1015.95 1017.10 1018.13 1019.11 1019.90 1020.86 1021.64 1022.37 1023.09 1023.76
1003.54 1002.09 1002.49 1002.62 1001.99 1001.84 1001.87 1002.14 1002.83 1003.24 1003.71 1003.75 1003.63 1003.22 1002.44 1001.58 1001.02 1001.22 1001.65 1001.51 1001.79 1002.26 1002.93 1003.58 1004.58 1005.68 1006.72 1007.91 1008.79 1009.39 1010.71 1012.26 1013.36 1014.49 1015.71 1016.82 1017.78 1018.80 1019.52 1020.64 1021.38 1021.96 1022.55 1023.12
1005.23 1004.11 1002.38 1001.99 1001.87 1001.61 1001.69 1002.10 1002.43 1003.14 1003.40 1003.49 1003.25 1002.89 1002.24 1001.58 1001.03 1001.37 1001.69 1001.67 1001.76 1002.29 1003.05 1003.82 1004.81 1005.88 1006.79 1007.76 1008.63 1009.42 1010.56 1011.83 1013.09 1014.32 1015.39 1016.47 1017.46 1018.49 1019.16 1020.00 1020.94 1021.53 1022.27 1022.70
1003.77 1002.62 1002.40 1001.80 1001.59 1001.66 1001.72 1001.80 1002.10 1002.21 1002.57 1002.75 1002.42 1002.04 1001.80 1001.77 1002.17 1001.62 1001.83 1002.05 1002.29 1002.74 1003.53 1004.27 1004.88 1005.93 1006.89 1007.78 1008.54 1009.51 1010.79 1011.60 1012.74 1013.91 1015.08 1016.16 1017.07 1018.17 1018.95 1019.79 1021.30 1022.27 1022.99 1023.56
Thickness
5687 5674 5684 5704 5703 5701 5695 5695 5696 5713 5726 5696 5696 5700 5712 5706 5701 5697 5697 5692 5683 5675 5667 5657 5646 5639 5628 5616 5607 5601 5593 5585 5582 5577 5573 5567 5561 5552 5544 5537 5527 5523 5519 5515
5672 5676 5695 5702 5704 5695 5687 5680 5682 5697 5710 5695 5688 5691 5706 5713 5707 5702 5695 5685 5676 5666 5656 5644 5635 5625 5617 5608 5602 5595 5588 5581 5575 5569 5561 5557 5550 5540 5532 5524 5515 5507 5503 5499
5670 5691 5698 5688 5685 5681 5679 5673 5677 5681 5693 5699 5678 5684 5693 5706 5714 5709 5697 5691 5678 5666 5651 5637 5626 5617 5610 5602 5594 5587 5580 5571 5565 5556 5549 5543 5535 5528 5524 5517 5509 5495 5489 5484
5669 5685 5682 5676 5672 5674 5671 5682 5679 5673 5664 5662 5687 5681 5699 5709 5718 5712 5693 5686 5674 5661 5648 5634 5621 5611 5602 5595 5586 5580 5570 5561 5551 5545 5542 5537 5535 5528 5512 5503 5493 5486 5475 5471
5669 5672 5666 5667 5680 5673 5672 5672 5663 5664 5650 5653 5669 5654 5710 5705 5703 5705 5685 5680 5669 5660 5648 5631 5614 5601 5594 5584 5574 5566 5556 5548 5538 5530 5527 5523 5517 5506 5496 5490 5482 5472 5467 5460
5655 5668 5659 5663 5670 5670 5670 5653 5643 5642 5636 5627 5659 5654 5707 5693 5698 5694 5679 5670 5663 5654 5640 5623 5606 5592 5583 5573 5563 5553 5545 5535 5524 5516 5511 5508 5500 5495 5489 5480 5475 5467 5459 5451
5647 5648 5655 5652 5644 5648 5644 5633 5602 5598 5611 5628 5664 5659 5679 5688 5683 5678 5667 5658 5652 5640 5628 5614 5597 5583 5574 5562 5551 5543 5535 5521 5510 5504 5499 5492 5485 5479 5473 5470 5463 5458 5453 5444
5631 5632 5652 5655 5638 5642 5633 5629 5612 5608 5622 5635 5657 5642 5672 5673 5667 5662 5659 5660 5649 5628 5614 5603 5589 5577 5567 5552 5541 5533 5523 5509 5500 5495 5487 5478 5472 5468 5461 5455 5449 5446 5441 5429
5613 5627 5644 5634 5641 5635 5632 5618 5633 5609 5615 5597 5625 5645 5663 5663 5646 5645 5640 5632 5626 5617 5608 5595 5581 5569 5556 5539 5526 5519 5510 5502 5491 5484 5475 5468 5463 5456 5450 5443 5439 5434 5424 5418
5572 5578 5612 5615 5621 5624 5618 5627 5594 5569 5574 5587 5623 5631 5638 5642 5646 5629 5611 5615 5612 5609 5595 5580 5568 5559 5547 5518 5511 5503 5499 5491 5482 5473 5466 5458 5451 5443 5437 5433 5429 5420 5413 5408
5557 5556 5591 5591 5593 5592 5595 5589 5588 5586 5573 5560 5577 5607 5648 5615 5612 5613 5604 5596 5600 5593 5583 5570 5555 5546 5536 5508 5498 5495 5490 5481 5472 5464 5457 5448 5439 5433 5427 5422 5416 5409 5403 5397
5542 5537 5550 5571 5593 5590 5577 5579 5579 5562 5563 5570 5570 5581 5623 5613 5607 5601 5603 5579 5584 5578 5564 5557 5545 5536 5518 5496 5489 5478 5478 5462 5461 5454 5447 5437 5428 5419 5417 5409 5404 5400 5393 5387
5504 5511 5527 5560 5572 5575 5562 5565 5573 5572 5561 5540 5539 5564 5605 5597 5587 5586 5585 5580 5566 5563 5551 5544 5535 5526 5500 5491 5478 5465 5460 5453 5448 5436 5431 5425 5413 5408 5402 5398 5393 5387 5382 5376
5477 5489 5500 5517 5541 5522 5510 5519 5527 5521 5522 5541 5550 5555 5578 5584 5580 5578 5572 5570 5554 5548 5542 5526 5523 5513 5493 5485 5466 5461 5453 5446 5440 5427 5414 5408 5394 5389 5389 5385 5377 5373 5368 5362
5474 5467 5483 5493 5509 5507 5513 5520 5521 5520 5524 5513 5525 5527 5556 5566 5562 5553 5553 5554 5547 5539 5531 5518 5508 5505 5487 5482 5463 5460 5451 5443 5433 5421 5410 5393 5383 5380 5377 5372 5365 5361 5356 5351
5483 5467 5480 5477 5498 5500 5499 5506 5517 5524 5521 5520 5526 5526 5555 5564 5556 5555 5554 5551 5545 5538 5531 5515 5505 5497 5485 5483 5465 5459 5451 5439 5429 5419 5406 5391 5383 5377 5371 5365 5360 5354 5347 5342
5473 5472 5475 5475 5499 5497 5490 5503 5510 5514 5520 5525 5523 5535 5549 5547 5544 5543 5546 5548 5549 5547 5537 5518 5507 5498 5485 5478 5468 5460 5451 5434 5425 5417 5403 5391 5383 5378 5370 5364 5360 5352 5345 5341
5467 5463 5465 5462 5472 5451 5505 5515 5518 5521 5529 5536 5539 5539 5542 5545 5545 5546 5548 5547 5545 5549 5542 5519 5501 5494 5485 5473 5466 5455 5441 5429 5419 5408 5400 5390 5383 5375 5368 5363 5356 5351 5344 5338
5471 5468 5460 5447 5465 5483 5501 5521 5517 5517 5519 5534 5535 5531 5540 5545 5541 5538 5532 5526 5527 5531 5528 5509 5495 5487 5479 5471 5459 5447 5436 5425 5414 5404 5396 5389 5381 5372 5365 5359 5352 5345 5338 5332
5480 5476 5457 5455 5452 5466 5507 5513 5491 5495 5498 5517 5512 5517 5525 5527 5517 5525 5518 5517 5512 5510 5507 5497 5486 5477 5470 5462 5451 5442 5431 5421 5409 5400 5391 5384 5376 5368 5360 5353 5345 5337 5330 5321
5470 5462 5450 5455 5450 5461 5479 5496 5491 5478 5487 5490 5490 5498 5500 5498 5482 5502 5505 5506 5503 5504 5496 5484 5475 5475 5468 5457 5447 5436 5425 5413 5404 5396 5386 5376 5369 5360 5351 5344 5336 5328 5319 5313
5480 5469 5465 5463 5453 5461 5477 5481 5472 5472 5476 5476 5474 5475 5478 5489 5490 5491 5495 5492 5493 5491 5483 5474 5472 5467 5458 5450 5439 5432 5420 5408 5401 5391 5381 5371 5362 5353 5343 5335 5326 5317 5310 5301
5461 5472 5471 5463 5464 5454 5445 5465 5465 5462 5460 5462 5454 5452 5458 5466 5480 5484 5482 5482 5482 5479 5473 5470 5466 5458 5449 5440 5432 5428 5416 5404 5396 5386 5375 5364 5354 5345 5337 5327 5319 5310 5303 5296
5454 5473 5464 5462 5470 5471 5470 5465 5458 5452 5441 5442 5443 5449 5457 5465 5472 5470 5466 5471 5471 5471 5468 5466 5460 5450 5442 5433 5428 5425 5413 5399 5390 5380 5368 5358 5349 5339 5332 5320 5312 5306 5300 5295
5411 5432 5459 5462 5464 5467 5464 5459 5455 5446 5441 5438 5442 5446 5454 5462 5469 5467 5465 5467 5468 5466 5461 5457 5450 5442 5436 5430 5424 5418 5407 5395 5384 5373 5363 5353 5343 5333 5326 5317 5308 5302 5296 5291
5438 5449 5443 5449 5459 5457 5456 5457 5454 5452 5448 5445 5448 5452 5455 5456 5450 5461 5461 5459 5458 5456 5451 5447 5444 5436 5429 5423 5417 5408 5396 5389 5379 5368 5358 5347 5339 5328 5320 5312 5297 5287 5282 5277